GWO459 Weather Reports


Display with metric or nautical units.
time (UTC)temp
F
wind
direction
speed
MPH
gust
MPH
rain 1hr
in
rain 24hr
in
rain mn
in
humidity
%
barometer
mb
20260509222703 60 250 5.0 10.0 0.00 0.03 0.02 81 1001.5
20260509222017 60 261 7.0 14.0 0.00 0.03 0.02 81 1001.5
20260509220903 60 264 6.0 15.0 0.00 0.03 0.02 81 1001.5
20260509220003 60 255 4.0 15.0 0.00 0.03 0.02 83 1001.5
20260509215618 60 249 4.0 15.0 0.00 0.03 0.02 82 1001.5
20260509214504 59 257 3.0 11.0 0.00 0.03 0.02 85 1001.5
20260509213603 58 251 2.0 8.0 0.00 0.03 0.02 89 1001.5
20260509212703 57 269 1.0 5.0 0.00 0.03 0.02 91 1001.5
20260509211803 57 252 1.0 6.0 0.00 0.03 0.02 92 1001.6
20260509210903 56 250 1.0 5.0 0.00 0.03 0.02 93 1001.8
20260509210004 56 255 1.0 6.0 0.00 0.03 0.02 94 1001.8
20260509205617 55 255 1.0 6.0 0.00 0.03 0.02 94 1001.8
20260509204503 54 231 0.0 4.0 0.00 0.03 0.02 95 1001.9
20260509203818 54 245 0.0 4.0 0.00 0.03 0.02 95 1001.8
20260509202703 52 244 1.0 5.0 0.00 0.03 0.02 95 1001.7
20260509202017 51 0 0.0 4.0 0.00 0.03 0.02 94 1001.6
20260509200903 50 0 0.0 0.0 0.00 0.03 0.02 94 1001.7
20260509200004 50 0 0.0 0.0 0.00 0.03 0.02 94 1001.7
20260509195403 50 0 0.0 0.0 0.00 0.03 0.02 94 1001.7
20260509194503 50 0 0.0 0.0 0.00 0.03 0.02 94 1001.5
20260509193818 50 0 0.0 1.0 0.00 0.03 0.02 94 1001.5
20260509192917 50 0 0.0 0.0 0.00 0.03 0.02 94 1001.5
20260509191803 50 0 0.0 4.0 0.00 0.03 0.02 94 1001.4
20260509190903 49 0 0.0 2.0 0.00 0.03 0.02 93 1001.4
20260509190217 48 0 0.0 2.0 0.00 0.03 0.02 93 1001.4
20260509185403 48 0 0.0 0.0 0.00 0.03 0.02 92 1001.4
20260509184503 48 0 0.0 0.0 0.00 0.03 0.02 92 1001.5
20260509183603 48 0 0.0 0.0 0.00 0.03 0.02 92 1001.5
20260509182703 48 0 0.0 0.0 0.00 0.03 0.02 92 1001.5
20260509181803 48 0 0.0 0.0 0.00 0.03 0.02 92 1001.4
20260509180903 48 0 0.0 0.0 0.00 0.03 0.02 92 1001.4
20260509180216 48 0 0.0 0.0 0.00 0.03 0.02 92 1001.4
20260509175403 48 0 0.0 0.0 0.00 0.03 0.02 92 1001.2
20260509174717 48 0 0.0 0.0 0.00 0.03 0.02 92 1001.2
20260509173603 49 0 0.0 0.0 0.01 0.03 0.02 92 1001.1
20260509172918 49 0 0.0 0.0 0.01 0.03 0.02 92 1001.2
20260509172017 49 0 0.0 0.0 0.01 0.03 0.02 92 1001.1
20260509170903 50 0 0.0 0.0 0.01 0.03 0.02 92 1000.9
20260509170003 50 0 0.0 0.0 0.01 0.03 0.02 92 1001.0
20260509165403 50 0 0.0 1.0 0.01 0.03 0.02 92 1001.0
20260509164503 50 0 0.0 0.0 0.01 0.03 0.02 92 1001.1
20260509163603 50 0 0.0 1.0 0.00 0.03 0.02 91 1001.0
20260509162703 50 0 0.0 1.0 0.00 0.03 0.02 91 1001.0
20260509161854 50 0 0.0 1.0 0.00 0.03 0.02 91 1001.0
20260509160903 51 0 0.0 0.0 0.00 0.03 0.02 91 1001.0
20260509160003 51 0 0.0 1.0 0.00 0.03 0.02 91 1001.0
20260509155403 51 0 0.0 2.0 0.00 0.03 0.02 91 1001.1
20260509154503 52 0 0.0 2.0 0.00 0.03 0.02 91 1001.1
20260509153603 52 0 0.0 1.0 0.00 0.03 0.02 91 1001.3
20260509152703 52 0 0.0 1.0 0.00 0.04 0.02 91 1001.2
20260509151803 53 0 0.0 0.0 0.00 0.04 0.02 91 1001.3
20260509150903 53 0 0.0 0.0 0.00 0.05 0.02 91 1001.2
20260509150003 54 0 0.0 0.0 0.00 0.07 0.02 91 1001.3
20260509145403 54 0 0.0 1.0 0.00 0.07 0.02 91 1001.4
20260509144503 54 0 0.0 3.0 0.00 0.07 0.02 91 1001.4
20260509143818 54 0 0.0 3.0 0.00 0.07 0.02 91 1001.3
20260509142703 54 312 0.0 2.0 0.00 0.08 0.02 92 1001.2
20260509141803 55 0 0.0 3.0 0.00 0.09 0.02 92 1001.3
20260509140903 55 313 0.0 3.0 0.00 0.17 0.02 92 1001.4
20260509140004 55 321 0.0 3.0 0.00 0.29 0.02 92 1001.5
20260509135403 55 0 0.0 3.0 0.00 0.30 0.02 92 1001.5
20260509134503 55 0 0.0 1.0 0.01 0.31 0.02 92 1001.5
20260509133603 56 0 0.0 1.0 0.02 0.31 0.02 92 1001.5
20260509132917 56 0 0.0 2.0 0.02 0.31 0.02 92 1001.4
20260509131803 56 0 0.0 2.0 0.02 0.31 0.02 92 1001.3
20260509130903 56 327 0.0 2.0 0.02 0.31 0.02 93 1001.5
20260509130004 56 322 1.0 3.0 0.02 0.31 0.02 93 1001.7
20260509125403 56 255 2.0 5.0 0.02 0.31 0.02 93 1001.8
20260509124503 56 224 0.0 5.0 0.01 0.30 0.01 92 1002.0
20260509123603 55 0 0.0 1.0 0.00 0.29 0.00 92 1001.8
20260509122703 55 195 0.0 2.0 0.00 0.29 0.00 91 1001.8
20260509121803 55 199 0.0 5.0 0.00 0.29 0.00 91 1001.8
20260509120903 55 0 3.0 3.0 0.00 0.29 0.00 91 1001.8
20260509120218 55 0 1.0 1.0 0.00 0.29 0.00 91 1001.8
20260509115403 55 0 1.0 1.0 0.00 0.29 0.29 90 1001.8
20260509114503 56 0 3.0 3.0 0.00 0.29 0.29 90 1001.7
20260509113603 56 0 2.0 2.0 0.00 0.29 0.29 90 1001.6
20260509112703 56 0 0.0 0.0 0.00 0.29 0.29 90 1001.7
20260509111803 57 0 1.0 1.0 0.00 0.29 0.29 90 1001.6
20260509110903 57 0 1.0 1.0 0.00 0.29 0.29 90 1001.7
20260509110218 57 0 0.0 0.0 0.00 0.29 0.29 90 1001.7
20260509105403 58 0 2.0 2.0 0.00 0.29 0.29 90 1001.7
20260509104503 58 0 0.0 0.0 0.00 0.30 0.29 90 1001.8
20260509103818 58 0 0.0 0.0 0.00 0.30 0.29 90 1002.0
20260509102918 58 0 1.0 1.0 0.00 0.30 0.29 90 1002.1
20260509101803 58 0 1.0 1.0 0.00 0.30 0.29 90 1002.1
20260509100903 58 0 0.0 0.0 0.00 0.30 0.29 90 1002.3
20260509100004 58 0 1.0 1.0 0.01 0.30 0.29 90 1002.4
20260509095403 58 0 1.0 1.0 0.01 0.30 0.29 90 1002.6
20260509094503 58 0 0.0 0.0 0.01 0.30 0.29 90 1002.6
20260509093603 58 0 3.0 3.0 0.01 0.30 0.29 90 1002.5
20260509092703 58 0 2.0 2.0 0.01 0.30 0.29 90 1002.4
20260509091803 58 0 3.0 3.0 0.01 0.30 0.29 89 1002.5
20260509090903 58 0 0.0 1.0 0.01 0.30 0.29 89 1002.6
20260509090217 58 222 0.0 2.0 0.00 0.29 0.28 89 1002.7
20260509085403 58 228 1.0 4.0 0.00 0.29 0.28 89 1002.6
20260509084503 58 237 1.0 5.0 0.00 0.29 0.28 89 1002.4
20260509083603 58 260 0.0 4.0 0.00 0.29 0.28 88 1002.4
20260509082917 58 0 0.0 3.0 0.00 0.29 0.28 88 1002.2
20260509081803 58 0 0.0 0.0 0.00 0.29 0.28 87 1002.1
20260509080903 58 0 0.0 0.0 0.00 0.29 0.28 87 1002.1
20260509080003 58 0 0.0 0.0 0.00 0.29 0.28 87 1002.0
20260509075403 58 0 0.0 0.0 0.00 0.29 0.28 86 1002.0
20260509074503 58 0 0.0 1.0 0.00 0.29 0.28 86 1002.0
20260509073603 58 0 0.0 0.0 0.00 0.29 0.28 86 1002.0
20260509072703 58 0 0.0 0.0 0.00 0.29 0.28 86 1002.0
20260509071803 59 0 0.0 1.0 0.00 0.29 0.28 86 1002.0
20260509070903 59 0 0.0 0.0 0.00 0.29 0.28 85 1002.0
20260509070004 59 0 0.0 0.0 0.00 0.29 0.28 85 1002.1
20260509065403 59 0 0.0 1.0 0.00 0.30 0.28 85 1002.0
20260509064503 59 0 0.0 0.0 0.00 0.30 0.28 85 1001.8
20260509063817 60 0 0.0 0.0 0.00 0.31 0.28 84 1001.8
20260509062703 60 0 0.0 0.0 0.00 0.31 0.28 84 1001.6
20260509062017 60 0 0.0 0.0 0.00 0.31 0.28 83 1001.7
20260509060903 61 0 0.0 0.0 0.00 0.31 0.28 82 1001.8
20260509060004 61 0 0.0 0.0 0.00 0.31 0.28 83 1001.7
20260509055403 62 0 0.0 0.0 0.00 0.31 0.28 82 1001.6
20260509054504 62 0 0.0 0.0 0.00 0.31 0.28 80 1001.5
20260509053604 63 0 0.0 3.0 0.00 0.31 0.28 81 1001.5
20260509052703 63 0 0.0 0.0 0.00 0.31 0.28 80 1001.6
20260509051803 63 290 0.0 3.0 0.00 0.31 0.28 79 1001.6
20260509051118 64 291 0.0 3.0 0.00 0.31 0.28 79 1001.7
20260509050003 64 269 2.0 4.0 0.00 0.31 0.28 79 1001.7
20260509045403 64 253 2.0 6.0 0.00 0.31 0.28 78 1001.6
20260509044503 64 248 3.0 9.0 0.00 0.31 0.28 78 1001.7
20260509043603 65 260 3.0 9.0 0.00 0.31 0.28 77 1001.7
20260509042703 65 257 4.0 8.0 0.00 0.31 0.28 76 1001.6
20260509041803 65 259 4.0 11.0 0.00 0.31 0.28 75 1001.7
20260509040903 66 264 3.0 9.0 0.00 0.31 0.28 74 1001.7
20260509040003 66 266 3.0 8.0 0.00 0.31 0.28 74 1001.5
20260509035403 66 247 4.0 8.0 0.00 0.31 0.28 75 1001.5
20260509034503 66 253 4.0 9.0 0.00 0.31 0.28 74 1001.6
20260509033603 66 254 2.0 10.0 0.00 0.31 0.28 74 1001.8
20260509032917 66 277 2.0 4.0 0.00 0.31 0.28 74 1001.8
20260509031803 67 276 3.0 11.0 0.00 0.31 0.28 74 1001.8
20260509030903 68 270 3.0 8.0 0.00 0.31 0.28 71 1001.7
20260509030003 68 292 3.0 8.0 0.00 0.31 0.28 71 1001.8
20260509025617 68 313 3.0 8.0 0.00 0.31 0.28 70 1001.9
20260509024503 68 253 5.0 10.0 0.00 0.31 0.28 71 1002.0
20260509023603 69 254 4.0 11.0 0.00 0.31 0.28 68 1002.0
20260509022703 69 307 4.0 10.0 0.00 0.31 0.28 69 1002.0
20260509021803 69 308 5.0 11.0 0.00 0.31 0.28 69 1002.1
20260509020903 68 291 4.0 12.0 0.00 0.31 0.28 68 1002.2
20260509020003 68 317 4.0 10.0 0.00 0.31 0.28 71 1002.3
20260509015618 67 310 4.0 10.0 0.00 0.31 0.28 72 1002.3
20260509014503 68 263 4.0 10.0 0.00 0.31 0.28 70 1002.3
20260509013603 68 304 3.0 11.0 0.00 0.31 0.28 69 1002.5
20260509012703 68 271 4.0 10.0 0.00 0.31 0.28 74 1002.6
20260509011803 66 259 6.0 11.0 0.00 0.31 0.28 73 1002.7
20260509010903 65 260 7.0 14.0 0.00 0.31 0.28 75 1002.9
20260509010003 67 255 6.0 16.0 0.00 0.31 0.28 71 1003.1
20260509005618 68 251 6.0 15.0 0.00 0.32 0.28 70 1003.1
20260509004503 69 267 3.0 14.0 0.00 0.38 0.28 71 1002.9
20260509003603 68 291 4.0 9.0 0.00 0.39 0.28 75 1003.1
20260509002704 68 254 5.0 10.0 0.00 0.39 0.28 72 1003.4
20260509001803 68 262 3.0 11.0 0.00 0.39 0.28 73 1003.6
20260509000903 67 242 3.0 9.0 0.00 0.39 0.28 78 1003.7
20260509000003 66 238 5.0 8.0 0.00 0.39 0.28 79 1003.9
20260508235403 67 245 6.0 18.0 0.00 0.39 0.28 77 1004.1
20260508234503 68 255 4.0 11.0 0.00 0.39 0.28 75 1004.1
20260508233603 68 268 4.0 13.0 0.00 0.39 0.28 74 1004.1
20260508232918 68 260 2.0 10.0 0.00 0.39 0.28 76 1004.2
20260508231803 67 290 3.0 10.0 0.00 0.39 0.28 80 1004.4
20260508230903 67 326 3.0 9.0 0.00 0.39 0.28 77 1004.5
20260508230004 67 312 2.0 8.0 0.00 0.39 0.28 78 1004.7
20260508225403 67 288 2.0 8.0 0.00 0.39 0.28 79 1004.7
20260508224503 66 309 2.0 6.0 0.00 0.39 0.28 81 1004.8
20260508223603 67 313 0.0 5.0 0.00 0.39 0.28 80 1004.8